QPF
0.04 0.04 0.03 0.03 0.03 0.03 0.04 0.04 0.04 0.04 0.04 0.04 0.04 0.05 0.05 0.04 0.04 0.04 0.03 0.03 0.03 0.04 0.05 0.05 0.04 0.03 0.04 0.05 0.05 0.05 0.04 0.05 0.05 0.04 0.03 0.03 0.04 0.05 0.06 0.08 0.07 0.04 0.03
0.06 0.06 0.05 0.04 0.04 0.04 0.04 0.04 0.05 0.05 0.05 0.04 0.04 0.04 0.06 0.06 0.04 0.03 0.03 0.03 0.03 0.03 0.04 0.05 0.04 0.03 0.02 0.02 0.03 0.04 0.04 0.04 0.05 0.05 0.04 0.03 0.04 0.05 0.05 0.06 0.07 0.07 0.04
0.05 0.06 0.07 0.06 0.05 0.04 0.04 0.04 0.04 0.05 0.05 0.05 0.06 0.05 0.04 0.06 0.07 0.04 0.03 0.03 0.03 0.03 0.03 0.04 0.04 0.04 0.03 0.02 0.02 0.02 0.02 0.02 0.03 0.05 0.05 0.04 0.04 0.05 0.05 0.05 0.06 0.07 0.06
0.05 0.05 0.05 0.05 0.05 0.05 0.05 0.04 0.04 0.04 0.04 0.04 0.05 0.06 0.05 0.04 0.06 0.07 0.05 0.04 0.03 0.03 0.03 0.03 0.04 0.04 0.04 0.03 0.02 0.02 0.02 0.03 0.03 0.03 0.05 0.05 0.05 0.05 0.05 0.05 0.05 0.07 0.07
0.05 0.05 0.05 0.04 0.04 0.04 0.05 0.04 0.04 0.04 0.04 0.03 0.04 0.05 0.06 0.05 0.05 0.07 0.07 0.06 0.04 0.03 0.03 0.04 0.04 0.04 0.05 0.04 0.03 0.02 0.03 0.03 0.04 0.04 0.04 0.05 0.05 0.05 0.05 0.05 0.05 0.06 0.06
0.05 0.05 0.05 0.04 0.04 0.04 0.04 0.04 0.04 0.04 0.04 0.03 0.03 0.04 0.05 0.05 0.04 0.05 0.07 0.07 0.06 0.04 0.03 0.03 0.04 0.05 0.05 0.06 0.06 0.04 0.03 0.03 0.04 0.04 0.04 0.04 0.04 0.04 0.04 0.05 0.05 0.05 0.05
0.05 0.05 0.06 0.04 0.04 0.04 0.04 0.04 0.04 0.04 0.04 0.04 0.03 0.03 0.04 0.05 0.05 0.05 0.06 0.06 0.06 0.06 0.05 0.04 0.04 0.04 0.05 0.04 0.05 0.06 0.04 0.03 0.03 0.03 0.03 0.03 0.03 0.03 0.04 0.04 0.04 0.04 0.04
0.04 0.04 0.05 0.05 0.04 0.03 0.03 0.04 0.04 0.04 0.04 0.04 0.04 0.04 0.04 0.05 0.06 0.05 0.05 0.06 0.06 0.05 0.05 0.04 0.04 0.04 0.04 0.04 0.04 0.04 0.05 0.03 0.02 0.02 0.02 0.03 0.03 0.03 0.04 0.04 0.04 0.04 0.04
0.04 0.04 0.04 0.04 0.04 0.03 0.03 0.04 0.04 0.04 0.04 0.04 0.03 0.03 0.03 0.04 0.05 0.05 0.05 0.05 0.05 0.05 0.05 0.04 0.04 0.04 0.04 0.04 0.04 0.04 0.04 0.04 0.04 0.02 0.02 0.02 0.03 0.04 0.05 0.05 0.05 0.05 0.04
0.04 0.04 0.04 0.04 0.04 0.04 0.04 0.04 0.04 0.04 0.04 0.03 0.03 0.03 0.02 0.03 0.03 0.04 0.04 0.04 0.05 0.04 0.04 0.04 0.04 0.04 0.04 0.03 0.03 0.03 0.03 0.03 0.03 0.03 0.02 0.02 0.02 0.04 0.05 0.05 0.05 0.05 0.04
0.03 0.04 0.04 0.04 0.04 0.04 0.04 0.04 0.04 0.04 0.03 0.03 0.03 0.03 0.02 0.02 0.02 0.03 0.03 0.03 0.04 0.03 0.03 0.04 0.03 0.04 0.04 0.03 0.03 0.02 0.02 0.02 0.02 0.02 0.02 0.02 0.02 0.02 0.03 0.03 0.03 0.03 0.03
0.03 0.04 0.04 0.04 0.04 0.04 0.04 0.05 0.04 0.04 0.03 0.03 0.03 0.03 0.02 0.02 0.02 0.02 0.03 0.03 0.03 0.04 0.03 0.03 0.03 0.03 0.03 0.04 0.03 0.03 0.02 0.02 0.02 0.02 0.02 0.02 0.01 0.01 0.01 0.01 0.02 0.02 0.02
0.03 0.03 0.04 0.04 0.04 0.04 0.05 0.05 0.05 0.04 0.04 0.03 0.03 0.03 0.02 0.02 0.02 0.03 0.03 0.03 0.03 0.03 0.03 0.03 0.03 0.04 0.04 0.04 0.03 0.03 0.02 0.02 0.02 0.02 0.01 0.01 0.01 0.01 0.01 0.01 0.01 0.02 0.02
0.02 0.03 0.03 0.04 0.04 0.05 0.04 0.04 0.04 0.04 0.03 0.03 0.03 0.03 0.03 0.03 0.02 0.02 0.02 0.02 0.02 0.03 0.03 0.03 0.03 0.03 0.03 0.03 0.03 0.02 0.02 0.02 0.01 0.01 0.01 0.01 0.01 0.01 0.01 0.01 0.02 0.02 0.02
0.02 0.02 0.02 0.03 0.04 0.04 0.04 0.04 0.04 0.03 0.03 0.03 0.03 0.03 0.03 0.03 0.03 0.03 0.03 0.03 0.03 0.03 0.03 0.03 0.03 0.02 0.02 0.02 0.02 0.02 0.01 0.01 0.01 0.01 0.01 0.01 0.01 0.01 0.01 0.01 0.01 0.02 0.02
0.01 0.01 0.01 0.02 0.03 0.03 0.03 0.04 0.04 0.03 0.03 0.03 0.03 0.03 0.03 0.03 0.03 0.03 0.03 0.03 0.03 0.03 0.03 0.03 0.02 0.02 0.02 0.01 0.02 0.02 0.01 0.01 0.01 0.01 0.01 0.01 0.01 0.01 0.01 0.01 0.01 0.02 0.02
0.01 0.01 0.01 0.01 0.02 0.02 0.03 0.03 0.03 0.03 0.03 0.03 0.03 0.03 0.03 0.03 0.03 0.03 0.03 0.02 0.03 0.03 0.03 0.03 0.02 0.02 0.02 0.02 0.02 0.02 0.01 0.01 0.01 0.01 0.01 0.01 0.01 0.01 0.01 0.01 0.01 0.02 0.02
0.01 0.01 0.01 0.01 0.02 0.02 0.02 0.03 0.03 0.03 0.03 0.03 0.03 0.03 0.02 0.02 0.02 0.02 0.02 0.03 0.03 0.03 0.02 0.02 0.02 0.02 0.02 0.02 0.01 0.01 0.01 0.01 0.01 0.01 0.01 0.01 0.02 0.02 0.02 0.02 0.02 0.02 0.01
0.01 0.01 0.01 0.01 0.02 0.02 0.02 0.02 0.02 0.02 0.02 0.02 0.02 0.02 0.02 0.02 0.02 0.02 0.02 0.02 0.02 0.02 0.02 0.01 0.01 0.02 0.02 0.02 0.01 0.01 0.01 0.01 0.01 0.01 0.01 0.01 0.01 0.02 0.02 0.02 0.02 0.02 0.03
0.01 0.02 0.02 0.02 0.02 0.02 0.02 0.01 0.01 0.01 0.01 0.01 0.02 0.02 0.02 0.03 0.03 0.03 0.03 0.02 0.02 0.02 0.02 0.02 0.01 0.01 0.02 0.02 0.02 0.02 0.01 0.01 0.01 0.01 0.01 0.01 0.01 0.01 0.01 0.01 0.02 0.02 0.02
0.02 0.02 0.02 0.02 0.02 0.01 0.02 0.02 0.02 0.02 0.02 0.02 0.02 0.02 0.03 0.03 0.03 0.02 0.02 0.02 0.02 0.02 0.02 0.02 0.01 0.01 0.01 0.02 0.02 0.02 0.01 0.01 0.01 0.01 0.01 0.01 0.01 0.01 0.01 0.01 0.01 0.02 0.02
0.02 0.02 0.01 0.01 0.01 0.01 0.01 0.01 0.01 0.02 0.02 0.02 0.02 0.02 0.02 0.02 0.02 0.02 0.01 0.01 0.01 0.01 0.01 0.01 0.01 0.01 0.01 0.01 0.01 0.02 0.02 0.01 0.01 0.01 0.01 0.01 0.01 0.01 0.01 0.01 0.01 0.02 0.02
0.02 0.01 0.01 0.01 0.01 0.01 0.01 0.01 0.01 0.02 0.02 0.02 0.02 0.02 0.03 0.02 0.02 0.01 0.01 0.01 0.01 0.01 0.01 0.01 0.01 0.01 0.01 0.01 0.01 0.01 0.02 0.01 0.01 0.01 0.01 0.01 0.01 0.01 0.01 0.01 0.01 0.01 0.01
0.02 0.01 0.01 0.01 0.01 0.01 0.01 0.02 0.02 0.02 0.02 0.02 0.02 0.02 0.02 0.02 0.02 0.02 0.02 0.02 0.02 0.01 0.01 0.01 0.01 0.01 0.01 0.01 0.01 0.01 0.01 0.01 0.01 0.02 0.01 0.01 0.01 0.01 0.01 0.01 0.01 0.01 0.01
0.01 0.01 0.01 0.01 0.01 0.01 0.02 0.02 0.02 0.02 0.02 0.02 0.02 0.02 0.02 0.02 0.02 0.02 0.02 0.02 0.02 0.02 0.01 0.01 0.01 0.01 0.01 0.01 0.01 0.01 0.01 0.01 0.02 0.02 0.02 0.02 0.01 0.01 0.01 0.01 0.01 0.01 0.01
0.02 0.02 0.01 0.01 0.02 0.02 0.02 0.02 0.02 0.02 0.02 0.01 0.01 0.01 0.02 0.02 0.02 0.02 0.02 0.02 0.01 0.01 0.01 0.01 0.01 0.01 0.01 0.01 0.01 0.01 0.01 0.01 0.02 0.02 0.03 0.03 0.02 0.01 0.01 0.01 0.01 0.01 0.01
MSLP
1031.63 1031.19 1030.74 1030.32 1029.95 1029.64 1029.38 1029.17 1028.98 1028.80 1028.61 1028.39 1028.16 1027.92 1027.68 1027.49 1027.35 1027.28 1027.29 1027.39 1027.55 1027.76 1027.99 1028.22 1028.43 1028.60 1028.74 1028.83 1028.90 1028.95 1029.01 1029.06 1029.13 1029.21 1029.28 1029.35 1029.40 1029.43 1029.43 1029.40 1029.35 1029.28 1029.21
1032.04 1031.59 1031.14 1030.71 1030.33 1030.01 1029.76 1029.54 1029.36 1029.16 1028.95 1028.70 1028.42 1028.12 1027.82 1027.56 1027.35 1027.22 1027.17 1027.22 1027.33 1027.50 1027.70 1027.90 1028.08 1028.25 1028.38 1028.49 1028.59 1028.70 1028.80 1028.92 1029.05 1029.18 1029.31 1029.42 1029.49 1029.54 1029.55 1029.53 1029.48 1029.43 1029.37
1032.45 1031.99 1031.53 1031.07 1030.67 1030.34 1030.06 1029.83 1029.62 1029.41 1029.18 1028.91 1028.60 1028.27 1027.94 1027.63 1027.38 1027.21 1027.12 1027.12 1027.19 1027.32 1027.48 1027.65 1027.81 1027.96 1028.10 1028.23 1028.36 1028.50 1028.66 1028.83 1029.00 1029.18 1029.33 1029.46 1029.54 1029.59 1029.60 1029.59 1029.55 1029.51 1029.47
1032.81 1032.35 1031.86 1031.39 1030.95 1030.58 1030.27 1030.02 1029.79 1029.56 1029.31 1029.03 1028.71 1028.38 1028.04 1027.72 1027.46 1027.26 1027.15 1027.12 1027.16 1027.25 1027.37 1027.50 1027.64 1027.78 1027.91 1028.05 1028.19 1028.36 1028.54 1028.74 1028.94 1029.13 1029.29 1029.42 1029.50 1029.54 1029.55 1029.54 1029.52 1029.50 1029.50
1033.09 1032.63 1032.13 1031.62 1031.16 1030.76 1030.42 1030.13 1029.88 1029.64 1029.39 1029.11 1028.81 1028.49 1028.16 1027.86 1027.60 1027.41 1027.28 1027.23 1027.24 1027.29 1027.37 1027.47 1027.58 1027.69 1027.80 1027.93 1028.07 1028.24 1028.43 1028.62 1028.82 1029.00 1029.15 1029.26 1029.33 1029.37 1029.38 1029.37 1029.38 1029.40 1029.44
1033.25 1032.79 1032.29 1031.78 1031.31 1030.89 1030.53 1030.23 1029.97 1029.73 1029.49 1029.22 1028.94 1028.65 1028.35 1028.08 1027.84 1027.65 1027.52 1027.45 1027.43 1027.45 1027.49 1027.54 1027.60 1027.67 1027.76 1027.86 1027.98 1028.13 1028.29 1028.47 1028.64 1028.80 1028.92 1029.01 1029.07 1029.10 1029.11 1029.13 1029.17 1029.24 1029.34
1033.28 1032.85 1032.37 1031.89 1031.43 1031.02 1030.67 1030.38 1030.13 1029.90 1029.67 1029.43 1029.18 1028.91 1028.65 1028.39 1028.17 1027.99 1027.86 1027.77 1027.71 1027.69 1027.69 1027.69 1027.71 1027.73 1027.77 1027.83 1027.92 1028.03 1028.16 1028.30 1028.44 1028.56 1028.66 1028.73 1028.78 1028.80 1028.83 1028.88 1028.96 1029.09 1029.25
1033.19 1032.81 1032.39 1031.96 1031.55 1031.19 1030.88 1030.61 1030.39 1030.18 1029.97 1029.76 1029.53 1029.28 1029.04 1028.80 1028.59 1028.40 1028.26 1028.14 1028.06 1028.00 1027.95 1027.91 1027.88 1027.86 1027.86 1027.88 1027.92 1027.99 1028.08 1028.19 1028.29 1028.39 1028.46 1028.52 1028.56 1028.60 1028.65 1028.73 1028.85 1029.02 1029.24
1033.00 1032.71 1032.37 1032.03 1031.70 1031.41 1031.16 1030.94 1030.75 1030.57 1030.38 1030.18 1029.96 1029.73 1029.49 1029.26 1029.04 1028.85 1028.68 1028.55 1028.44 1028.35 1028.27 1028.20 1028.13 1028.08 1028.04 1028.03 1028.04 1028.08 1028.14 1028.22 1028.30 1028.37 1028.44 1028.49 1028.54 1028.59 1028.65 1028.75 1028.90 1029.10 1029.34
1032.76 1032.55 1032.32 1032.08 1031.86 1031.65 1031.47 1031.31 1031.16 1031.01 1030.83 1030.64 1030.42 1030.18 1029.94 1029.70 1029.47 1029.27 1029.10 1028.95 1028.83 1028.72 1028.63 1028.55 1028.47 1028.40 1028.36 1028.33 1028.33 1028.35 1028.40 1028.46 1028.53 1028.60 1028.66 1028.72 1028.77 1028.82 1028.89 1029.00 1029.14 1029.33 1029.57
1032.46 1032.36 1032.24 1032.11 1031.98 1031.87 1031.76 1031.66 1031.54 1031.40 1031.24 1031.04 1030.81 1030.56 1030.31 1030.06 1029.82 1029.62 1029.45 1029.31 1029.20 1029.11 1029.03 1028.96 1028.90 1028.86 1028.82 1028.81 1028.81 1028.84 1028.90 1028.96 1029.03 1029.10 1029.16 1029.22 1029.26 1029.31 1029.37 1029.45 1029.57 1029.72 1029.91
1032.11 1032.11 1032.09 1032.06 1032.02 1031.99 1031.94 1031.88 1031.79 1031.66 1031.50 1031.29 1031.05 1030.79 1030.53 1030.28 1030.06 1029.87 1029.72 1029.61 1029.54 1029.49 1029.45 1029.43 1029.42 1029.41 1029.42 1029.44 1029.47 1029.53 1029.59 1029.67 1029.75 1029.83 1029.90 1029.94 1029.98 1030.01 1030.03 1030.07 1030.12 1030.21 1030.33
1031.71 1031.78 1031.84 1031.88 1031.92 1031.95 1031.95 1031.92 1031.84 1031.72 1031.55 1031.33 1031.09 1030.82 1030.57 1030.33 1030.13 1029.98 1029.88 1029.82 1029.81 1029.83 1029.86 1029.91 1029.96 1030.02 1030.08 1030.15 1030.23 1030.31 1030.41 1030.51 1030.61 1030.69 1030.76 1030.80 1030.82 1030.81 1030.79 1030.77 1030.76 1030.76 1030.79
1031.24 1031.36 1031.46 1031.56 1031.65 1031.71 1031.74 1031.73 1031.67 1031.54 1031.38 1031.16 1030.92 1030.67 1030.43 1030.22 1030.07 1029.97 1029.93 1029.94 1030.01 1030.10 1030.22 1030.34 1030.47 1030.60 1030.72 1030.84 1030.97 1031.09 1031.22 1031.35 1031.46 1031.56 1031.62 1031.66 1031.66 1031.63 1031.56 1031.48 1031.40 1031.32 1031.27
1030.70 1030.83 1030.97 1031.10 1031.21 1031.30 1031.34 1031.34 1031.29 1031.18 1031.01 1030.81 1030.58 1030.35 1030.15 1029.99 1029.88 1029.85 1029.87 1029.96 1030.10 1030.27 1030.46 1030.66 1030.85 1031.04 1031.22 1031.39 1031.56 1031.73 1031.88 1032.04 1032.17 1032.28 1032.37 1032.40 1032.40 1032.35 1032.26 1032.14 1032.01 1031.88 1031.77
1030.11 1030.24 1030.38 1030.52 1030.65 1030.74 1030.81 1030.82 1030.78 1030.68 1030.54 1030.35 1030.15 1029.96 1029.80 1029.68 1029.63 1029.64 1029.72 1029.87 1030.06 1030.29 1030.54 1030.79 1031.03 1031.26 1031.49 1031.70 1031.90 1032.10 1032.29 1032.47 1032.63 1032.78 1032.88 1032.94 1032.96 1032.92 1032.83 1032.71 1032.57 1032.42 1032.29
1029.51 1029.63 1029.76 1029.90 1030.03 1030.14 1030.22 1030.25 1030.23 1030.16 1030.04 1029.89 1029.72 1029.56 1029.44 1029.36 1029.34 1029.39 1029.50 1029.68 1029.90 1030.16 1030.43 1030.70 1030.97 1031.22 1031.47 1031.70 1031.93 1032.15 1032.38 1032.59 1032.80 1032.98 1033.14 1033.24 1033.30 1033.31 1033.27 1033.18 1033.07 1032.95 1032.83
1028.97 1029.06 1029.18 1029.31 1029.45 1029.58 1029.67 1029.72 1029.72 1029.68 1029.59 1029.47 1029.33 1029.21 1029.10 1029.05 1029.04 1029.10 1029.22 1029.40 1029.62 1029.86 1030.13 1030.39 1030.66 1030.91 1031.16 1031.40 1031.65 1031.90 1032.16 1032.42 1032.67 1032.92 1033.13 1033.31 1033.45 1033.53 1033.56 1033.55 1033.50 1033.44 1033.38
1028.54 1028.60 1028.70 1028.83 1028.97 1029.10 1029.20 1029.27 1029.30 1029.28 1029.22 1029.12 1029.01 1028.90 1028.81 1028.75 1028.74 1028.78 1028.88 1029.03 1029.21 1029.42 1029.65 1029.89 1030.13 1030.37 1030.61 1030.86 1031.12 1031.39 1031.69 1031.99 1032.30 1032.62 1032.91 1033.17 1033.40 1033.58 1033.71 1033.79 1033.84 1033.86 1033.87
1028.29 1028.31 1028.38 1028.49 1028.61 1028.74 1028.84 1028.92 1028.97 1028.96 1028.92 1028.84 1028.73 1028.62 1028.52 1028.45 1028.41 1028.42 1028.47 1028.57 1028.70 1028.86 1029.05 1029.24 1029.45 1029.66 1029.89 1030.14 1030.41 1030.70 1031.03 1031.38 1031.76 1032.13 1032.51 1032.86 1033.18 1033.46 1033.69 1033.88 1034.03 1034.14 1034.23
1028.23 1028.20 1028.22 1028.29 1028.38 1028.49 1028.58 1028.65 1028.69 1028.68 1028.64 1028.55 1028.44 1028.32 1028.20 1028.10 1028.03 1027.99 1027.99 1028.04 1028.11 1028.22 1028.35 1028.50 1028.67 1028.86 1029.08 1029.32 1029.60 1029.92 1030.27 1030.66 1031.08 1031.52 1031.96 1032.39 1032.79 1033.16 1033.49 1033.77 1034.02 1034.22 1034.39
1028.36 1028.26 1028.22 1028.23 1028.26 1028.32 1028.37 1028.41 1028.42 1028.39 1028.33 1028.23 1028.10 1027.95 1027.80 1027.67 1027.56 1027.48 1027.44 1027.43 1027.46 1027.53 1027.62 1027.74 1027.88 1028.05 1028.25 1028.49 1028.77 1029.09 1029.46 1029.88 1030.33 1030.80 1031.29 1031.77 1032.23 1032.67 1033.07 1033.43 1033.75 1034.03 1034.27
1028.65 1028.47 1028.34 1028.26 1028.22 1028.20 1028.19 1028.18 1028.14 1028.06 1027.96 1027.83 1027.66 1027.49 1027.31 1027.15 1027.01 1026.89 1026.82 1026.78 1026.78 1026.81 1026.88 1026.98 1027.10 1027.26 1027.45 1027.68 1027.95 1028.27 1028.64 1029.06 1029.51 1029.99 1030.50 1031.00 1031.50 1031.98 1032.43 1032.85 1033.22 1033.56 1033.85
1029.04 1028.76 1028.54 1028.36 1028.23 1028.12 1028.03 1027.94 1027.83 1027.70 1027.55 1027.37 1027.17 1026.96 1026.75 1026.56 1026.39 1026.26 1026.16 1026.11 1026.09 1026.11 1026.17 1026.25 1026.37 1026.51 1026.69 1026.91 1027.16 1027.47 1027.82 1028.21 1028.65 1029.12 1029.61 1030.12 1030.62 1031.12 1031.59 1032.04 1032.46 1032.84 1033.19
1029.47 1029.10 1028.78 1028.51 1028.28 1028.09 1027.91 1027.73 1027.55 1027.35 1027.14 1026.91 1026.66 1026.42 1026.18 1025.97 1025.78 1025.63 1025.52 1025.46 1025.44 1025.46 1025.51 1025.59 1025.69 1025.82 1025.99 1026.18 1026.41 1026.68 1027.00 1027.35 1027.75 1028.19 1028.66 1029.14 1029.64 1030.14 1030.62 1031.09 1031.54 1031.96 1032.34
1029.89 1029.45 1029.06 1028.71 1028.40 1028.12 1027.86 1027.61 1027.35 1027.09 1026.81 1026.53 1026.24 1025.95 1025.68 1025.43 1025.23 1025.06 1024.94 1024.87 1024.85 1024.86 1024.90 1024.98 1025.07 1025.19 1025.33 1025.50 1025.69 1025.92 1026.19 1026.50 1026.86 1027.25 1027.68 1028.14 1028.62 1029.11 1029.60 1030.08 1030.54 1030.99 1031.42
Thickness
5436 5435 5434 5433 5433 5434 5434 5435 5436 5437 5437 5437 5437 5437 5437 5437 5437 5438 5439 5439 5439 5440 5440 5442 5443 5443 5444 5445 5447 5448 5449 5449 5448 5449 5451 5452 5453 5454 5454 5455 5456 5457 5456
5424 5423 5422 5421 5421 5421 5422 5423 5424 5424 5425 5425 5425 5424 5424 5425 5425 5425 5425 5426 5427 5427 5428 5429 5429 5430 5431 5432 5433 5434 5435 5435 5435 5435 5436 5437 5439 5440 5440 5441 5442 5443 5443
5412 5410 5409 5408 5409 5409 5410 5411 5411 5412 5412 5412 5412 5412 5412 5413 5413 5414 5414 5414 5415 5416 5416 5417 5417 5418 5418 5419 5419 5420 5420 5421 5422 5423 5423 5424 5424 5425 5426 5427 5428 5429 5430
5399 5398 5397 5397 5397 5397 5397 5398 5398 5398 5399 5399 5400 5400 5400 5401 5401 5402 5403 5403 5403 5404 5404 5405 5406 5407 5408 5408 5408 5408 5408 5407 5408 5410 5411 5410 5411 5412 5413 5413 5414 5414 5416
5387 5387 5386 5385 5385 5385 5385 5385 5386 5385 5386 5387 5387 5387 5387 5388 5389 5390 5391 5392 5393 5392 5393 5393 5395 5395 5397 5397 5398 5397 5397 5396 5396 5396 5397 5397 5398 5399 5399 5400 5400 5401 5402
5375 5375 5374 5373 5373 5373 5373 5373 5373 5373 5373 5374 5375 5375 5375 5376 5377 5379 5380 5381 5381 5381 5381 5382 5383 5384 5384 5386 5386 5386 5386 5385 5384 5383 5384 5385 5385 5386 5386 5386 5386 5387 5389
5363 5363 5362 5361 5361 5360 5360 5360 5360 5361 5362 5362 5362 5363 5363 5363 5365 5367 5368 5368 5368 5368 5368 5369 5370 5371 5372 5371 5372 5372 5373 5374 5375 5374 5372 5373 5373 5374 5374 5374 5373 5374 5375
5351 5350 5350 5349 5349 5348 5347 5348 5348 5349 5350 5351 5351 5351 5350 5351 5352 5353 5355 5356 5355 5355 5355 5356 5356 5357 5357 5358 5358 5359 5359 5360 5361 5362 5362 5363 5362 5361 5361 5361 5360 5360 5361
5338 5338 5338 5337 5336 5335 5335 5335 5336 5337 5338 5339 5340 5340 5339 5339 5339 5341 5342 5342 5342 5342 5342 5343 5343 5344 5345 5346 5346 5346 5346 5346 5346 5347 5349 5349 5349 5349 5348 5347 5346 5347 5347
5325 5325 5325 5324 5324 5324 5324 5324 5324 5324 5325 5327 5327 5327 5326 5326 5328 5329 5330 5329 5329 5330 5329 5329 5330 5332 5333 5334 5333 5333 5332 5333 5333 5333 5334 5335 5336 5335 5336 5335 5335 5333 5333
5312 5312 5312 5311 5311 5311 5311 5312 5311 5312 5313 5313 5314 5313 5313 5314 5315 5316 5317 5316 5316 5316 5316 5316 5317 5318 5320 5321 5321 5320 5320 5320 5320 5320 5320 5320 5321 5321 5321 5321 5321 5320 5320
5299 5299 5298 5298 5298 5298 5298 5298 5298 5299 5299 5299 5299 5299 5299 5300 5301 5302 5303 5303 5304 5303 5303 5303 5303 5304 5306 5307 5307 5307 5307 5307 5306 5306 5306 5306 5306 5307 5307 5307 5306 5306 5306
5285 5284 5284 5284 5284 5284 5283 5284 5285 5285 5285 5285 5286 5286 5286 5287 5287 5288 5289 5290 5290 5290 5290 5290 5290 5290 5291 5292 5292 5292 5292 5291 5290 5291 5292 5292 5292 5293 5293 5292 5292 5292 5292
5271 5270 5270 5270 5270 5270 5269 5270 5271 5271 5270 5271 5272 5273 5273 5273 5273 5274 5274 5275 5276 5276 5275 5276 5276 5276 5276 5277 5276 5276 5275 5275 5275 5275 5276 5276 5276 5277 5277 5277 5277 5277 5277
5257 5257 5256 5256 5255 5255 5255 5255 5256 5256 5257 5259 5260 5260 5260 5260 5261 5262 5263 5263 5263 5262 5262 5261 5261 5260 5260 5260 5260 5260 5259 5259 5259 5259 5260 5260 5260 5261 5262 5262 5262 5262 5262
5245 5244 5242 5242 5241 5241 5241 5241 5242 5243 5244 5245 5247 5247 5248 5249 5249 5250 5251 5251 5251 5250 5249 5247 5246 5246 5246 5246 5246 5245 5244 5244 5244 5244 5244 5245 5245 5245 5246 5246 5246 5246 5247
5231 5230 5229 5229 5227 5226 5227 5227 5228 5229 5229 5231 5232 5234 5235 5236 5236 5237 5238 5238 5238 5237 5234 5233 5232 5232 5232 5231 5231 5231 5230 5229 5229 5229 5229 5229 5229 5229 5230 5231 5231 5231 5231
5220 5219 5218 5216 5214 5213 5213 5212 5213 5214 5215 5215 5217 5219 5221 5222 5223 5224 5225 5224 5222 5221 5220 5219 5219 5219 5218 5218 5217 5216 5216 5215 5214 5214 5214 5214 5214 5215 5215 5216 5216 5216 5217
5209 5207 5205 5204 5202 5201 5200 5199 5199 5200 5200 5201 5203 5205 5207 5209 5210 5210 5210 5208 5208 5207 5206 5206 5206 5205 5205 5204 5204 5203 5202 5202 5201 5201 5201 5200 5200 5200 5200 5201 5201 5203 5204
5197 5197 5195 5193 5191 5190 5188 5187 5187 5187 5187 5188 5190 5191 5193 5194 5195 5195 5195 5194 5193 5193 5193 5193 5192 5192 5192 5192 5191 5190 5190 5189 5189 5188 5188 5187 5187 5187 5187 5187 5188 5189 5191
5185 5184 5184 5182 5180 5178 5177 5176 5176 5175 5175 5176 5178 5179 5182 5182 5181 5181 5181 5181 5180 5180 5180 5180 5180 5180 5180 5180 5179 5179 5178 5177 5177 5176 5176 5175 5175 5175 5176 5176 5176 5177 5178
5174 5172 5172 5170 5169 5167 5166 5165 5164 5163 5164 5165 5166 5167 5170 5169 5169 5168 5168 5168 5168 5168 5168 5169 5169 5169 5168 5168 5168 5168 5167 5167 5166 5166 5165 5165 5165 5165 5165 5165 5166 5167 5168
5164 5162 5161 5159 5158 5157 5155 5154 5153 5153 5153 5154 5154 5155 5156 5156 5156 5157 5157 5157 5157 5157 5157 5157 5158 5158 5159 5159 5159 5159 5158 5158 5158 5157 5157 5157 5157 5156 5156 5156 5157 5157 5159
5153 5151 5150 5148 5147 5145 5145 5144 5143 5143 5143 5143 5144 5144 5144 5144 5145 5145 5146 5146 5146 5147 5147 5148 5149 5150 5150 5151 5151 5151 5151 5151 5151 5151 5150 5150 5149 5149 5149 5149 5149 5150 5151
5142 5140 5139 5138 5137 5136 5135 5134 5134 5133 5133 5134 5134 5134 5134 5134 5134 5135 5135 5136 5137 5138 5139 5140 5141 5142 5143 5144 5144 5144 5145 5145 5145 5145 5145 5144 5144 5143 5143 5142 5143 5143 5144
5131 5130 5129 5128 5127 5126 5125 5125 5124 5124 5124 5124 5125 5125 5125 5125 5125 5126 5126 5128 5129 5130 5132 5133 5134 5136 5137 5137 5138 5139 5139 5140 5140 5140 5140 5139 5139 5138 5137 5137 5137 5138 5138